DW0226 Weather Reports


time (UTC)temp
C
wind
direction
speed
KPH
gust
KPH
rain 1hr
cm
rain 24hr
cm
rain mn
cm
humidity
%
barometer
mb
20190325115025 7 80 0.0 0.0 0.00 0.00 0.00 56 1015.1
20190325114037 7 80 0.0 0.0 0.00 0.00 0.00 56 1015.1
20190325113031 6 80 0.0 3.2 0.00 0.00 0.00 56 1015.1
20190325112026 6 201 0.0 0.0 0.00 0.00 0.00 58 1015.0
20190325111020 6 201 0.0 0.0 0.00 0.00 0.00 59 1015.1
20190325110032 6 201 0.0 0.0 0.00 0.00 0.00 61 1015.1
20190325105027 7 201 0.0 0.0 0.00 0.00 0.00 63 1015.0
20190325104022 7 201 0.0 0.0 0.00 0.00 0.00 64 1015.1
20190325103035 7 201 0.0 0.0 0.00 0.00 0.00 63 1015.1
20190325102026 7 201 0.0 0.0 0.00 0.00 0.00 65 1015.2
20190325101022 8 201 0.0 0.0 0.00 0.00 0.00 64 1014.8
20190325100038 8 201 0.0 0.0 0.00 0.00 0.00 63 1015.1
20190325095029 8 201 0.0 0.0 0.00 0.00 0.00 62 1015.1
20190325094024 8 201 0.0 0.0 0.00 0.00 0.00 64 1015.1
20190325093019 8 201 0.0 0.0 0.00 0.00 0.00 64 1015.1
20190325092030 8 201 0.0 0.0 0.00 0.00 0.00 63 1015.1
20190325091025 8 201 0.0 0.0 0.00 0.00 0.00 64 1015.1
20190325090022 8 201 0.0 0.0 0.00 0.00 0.00 63 1015.2
20190325085035 8 201 0.0 0.0 0.00 0.00 0.00 61 1015.1
20190325084025 8 201 0.0 0.0 0.00 0.00 0.00 61 1015.1
20190325083038 8 201 0.0 0.0 0.00 0.00 0.00 60 1014.9
20190325082033 8 201 0.0 0.0 0.00 0.00 0.00 60 1015.1
20190325081028 8 201 0.0 0.0 0.00 0.00 0.00 61 1015.2
20190325080024 8 201 0.0 0.0 0.00 0.00 0.00 61 1015.1
20190325075034 8 201 0.0 0.0 0.00 0.00 0.00 62 1015.3
20190325074029 8 201 0.0 0.0 0.00 0.00 0.00 62 1015.3
20190325073024 8 201 0.0 0.0 0.00 0.00 0.00 62 1015.3
20190325072015 8 201 0.0 0.0 0.00 0.00 0.00 63 1015.4
20190325071034 8 201 0.0 0.0 0.00 0.00 0.00 64 1015.5
20190325070025 8 201 0.0 0.0 0.00 0.00 0.00 64 1015.5
20190325065016 8 201 0.0 0.0 0.00 0.00 0.00 66 1015.7
20190325064030 8 201 0.0 0.0 0.00 0.00 0.00 66 1015.6
20190325063028 9 201 0.0 0.0 0.00 0.00 0.00 64 1015.7
20190325062018 8 201 0.0 0.0 0.00 0.00 0.00 66 1015.7
20190325061029 8 201 0.0 0.0 0.00 0.00 0.00 65 1015.8
20190325060025 8 201 0.0 0.0 0.00 0.00 0.00 65 1015.9
20190325055035 8 201 0.0 4.8 0.00 0.00 0.00 65 1016.0
20190325054026 8 94 0.0 0.0 0.00 0.00 0.00 65 1016.1
20190325053020 8 94 0.0 0.0 0.00 0.00 0.00 65 1016.2
20190325052034 8 94 0.0 0.0 0.00 0.00 0.00 66 1016.2
20190325051029 8 94 0.0 0.0 0.00 0.00 0.00 67 1016.3
20190325050021 8 94 0.0 0.0 0.00 0.00 0.00 68 1016.4
20190325045035 9 94 0.0 0.0 0.00 0.00 0.00 69 1016.4
20190325044027 9 94 0.0 0.0 0.00 0.00 0.00 69 1016.5
20190325043019 9 94 0.0 0.0 0.00 0.00 0.00 69 1016.5
20190325042033 9 94 0.0 0.0 0.00 0.00 0.00 69 1016.6
20190325041029 10 94 0.0 0.0 0.00 0.00 0.00 69 1016.7
20190325040021 10 94 0.0 0.0 0.00 0.00 0.00 69 1016.8
20190325035031 10 94 0.0 0.0 0.00 0.00 0.00 69 1016.8
20190325034026 10 94 0.0 0.0 0.00 0.00 0.00 69 1016.8
20190325033019 10 94 0.0 0.0 0.00 0.00 0.00 70 1016.9
20190325032029 10 94 0.0 0.0 0.00 0.00 0.00 70 1016.9
20190325031020 10 94 0.0 0.0 0.00 0.00 0.00 70 1017.1
20190325030018 10 95 0.0 0.0 0.00 0.00 0.00 70 1017.2
20190325025030 10 95 1.6 6.4 0.00 0.00 0.00 70 1017.1
20190325024022 10 100 0.0 0.0 0.00 0.00 0.00 70 1017.3
20190325023019 10 100 0.0 0.0 0.00 0.00 0.00 70 1017.4
20190325022032 10 100 0.0 0.0 0.00 0.00 0.00 70 1017.4
20190325021023 10 100 0.0 0.0 0.00 0.00 0.00 69 1017.6
20190325020036 11 100 0.0 0.0 0.00 0.00 0.00 69 1017.5
20190325015031 11 100 0.0 0.0 0.00 0.00 0.00 68 1017.4
20190325014022 11 100 0.0 6.4 0.00 0.00 0.00 68 1017.5
20190325013037 11 94 0.0 0.0 0.00 0.00 0.00 68 1017.5
20190325012028 11 94 0.0 6.4 0.00 0.00 0.00 68 1017.5
20190325011023 11 94 0.0 0.0 0.00 0.00 0.00 67 1017.6
20190325010035 11 93 0.0 6.4 0.00 0.00 0.00 66 1017.7
20190325005025 11 112 0.0 8.0 0.00 0.00 0.00 66 1017.6
20190325004020 11 98 0.0 11.3 0.00 0.00 0.00 64 1017.7
20190325003032 12 86 0.0 9.7 0.00 0.00 0.00 63 1017.7
20190325002026 12 101 0.0 6.4 0.00 0.00 0.00 61 1017.7
20190325001037 12 102 1.6 4.8 0.00 0.00 0.00 59 1017.7
20190325000033 12 114 0.0 8.0 0.00 0.00 0.00 58 1017.7
20190324235027 12 97 3.2 9.7 0.00 0.00 0.00 58 1017.7
20190324234018 13 104 4.8 8.0 0.00 0.00 0.00 57 1017.4
20190324233017 13 88 1.6 9.7 0.00 0.00 0.00 55 1017.3
20190324232031 13 111 4.8 9.7 0.00 0.00 0.00 55 1017.4
20190324231024 13 95 0.0 0.0 0.00 0.00 0.00 54 1017.7
20190324230016 14 107 0.0 3.2 0.00 0.00 0.00 54 1017.7
20190324225034 14 115 0.0 0.0 0.00 0.00 0.00 54 1017.7
20190324224026 15 115 0.0 0.0 0.00 0.00 0.00 54 1017.6
20190324223021 15 115 0.0 0.0 0.00 0.00 0.00 52 1017.7
20190324222019 15 115 0.0 0.0 0.00 0.00 0.00 51 1017.7
20190324221034 15 115 0.0 0.0 0.00 0.00 0.00 49 1017.8
20190324220026 15 142 0.0 11.3 0.00 0.00 0.00 48 1017.8
20190324215018 16 111 0.0 8.0 0.00 0.00 0.00 46 1017.8
20190324214033 16 131 6.4 12.9 0.00 0.00 0.00 44 1017.8
20190324213029 17 130 4.8 8.0 0.00 0.00 0.00 42 1017.8
20190324212019 17 116 0.0 0.0 0.00 0.00 0.00 40 1017.7
20190324211035 17 115 0.0 0.0 0.00 0.00 0.00 39 1017.8
20190324210027 17 119 0.0 8.0 0.00 0.00 0.00 37 1017.9
20190324205037 18 112 0.0 9.7 0.00 0.00 0.00 37 1018.0
20190324204030 18 111 0.0 9.7 0.00 0.00 0.00 35 1017.7
20190324203028 18 173 0.0 8.0 0.00 0.00 0.00 33 1018.1
20190324202018 18 136 1.6 8.0 0.00 0.00 0.00 33 1018.4
20190324201033 18 194 1.6 9.7 0.00 0.00 0.00 31 1018.5
20190324200029 18 190 0.0 6.4 0.00 0.00 0.00 35 1018.6
20190324195020 18 240 3.2 11.3 0.00 0.00 0.00 36 1019.0
20190324194034 18 200 1.6 12.9 0.00 0.00 0.00 33 1019.1
20190324193028 18 255 1.6 9.7 0.00 0.00 0.00 35 1019.1
20190324192023 17 232 1.6 11.3 0.00 0.00 0.00 32 1019.3
20190324191018 17 213 0.0 8.0 0.00 0.00 0.00 33 1019.6
20190324190030 17 211 3.2 9.7 0.00 0.00 0.00 34 1019.8
20190324185024 17 286 1.6 12.9 0.00 0.00 0.00 35 1020.2
20190324184035 17 240 3.2 14.5 0.00 0.00 0.00 37 1020.5
20190324183027 17 242 8.0 14.5 0.00 0.00 0.00 36 1020.7
20190324182018 16 211 0.0 9.7 0.00 0.00 0.00 36 1021.0
20190324181034 16 205 0.0 11.3 0.00 0.00 0.00 34 1021.3
20190324180026 16 228 0.0 12.9 0.00 0.00 0.00 36 1021.5
20190324175037 16 195 0.0 8.0 0.00 0.00 0.00 36 1021.8
20190324174029 16 211 6.4 16.1 0.00 0.00 0.00 35 1022.0
20190324173025 15 266 3.2 11.3 0.00 0.00 0.00 35 1022.2
20190324172019 15 234 0.0 6.4 0.00 0.00 0.00 37 1022.3
20190324171033 15 234 6.4 14.5 0.00 0.00 0.00 36 1022.6
20190324170031 15 243 3.2 9.7 0.00 0.00 0.00 38 1022.9
20190324165025 15 139 0.0 14.5 0.00 0.00 0.00 36 1023.0
20190324164036 15 168 3.2 8.0 0.00 0.00 0.00 37 1023.2
20190324163029 14 242 1.6 8.0 0.00 0.00 0.00 40 1023.4
20190324162025 14 239 4.8 11.3 0.00 0.00 0.00 38 1023.7
20190324161036 13 232 3.2 11.3 0.00 0.00 0.00 37 1024.0
20190324160029 13 229 3.2 9.7 0.00 0.00 0.00 38 1024.2
20190324155025 13 186 1.6 9.7 0.00 0.00 0.00 38 1024.2
20190324154036 13 234 1.6 6.4 0.00 0.00 0.00 39 1024.4
20190324153028 13 161 3.2 6.4 0.00 0.00 0.00 37 1024.5
20190324152019 13 236 0.0 3.2 0.00 0.00 0.00 41 1024.6
20190324151034 12 213 1.6 6.4 0.00 0.00 0.00 41 1024.8
20190324150025 12 227 1.6 9.7 0.00 0.00 0.00 40 1024.8
20190324145019 12 223 0.0 8.0 0.00 0.00 0.00 45 1024.8
20190324144017 12 186 0.0 9.7 0.00 0.00 0.00 48 1024.9
20190324143035 11 168 0.0 9.7 0.00 0.00 0.00 46 1024.9
20190324142024 11 174 3.2 8.0 0.00 0.00 0.00 49 1025.2
20190324141016 10 236 0.0 6.4 0.00 0.00 0.00 55 1025.2
20190324140015 10 245 0.0 3.2 0.00 0.00 0.00 55 1025.3
20190324135030 9 245 0.0 6.4 0.00 0.00 0.00 63 1025.3
20190324134021 8 239 1.6 6.4 0.00 0.00 0.00 67 1025.6
20190324133021 7 255 0.0 3.2 0.00 0.00 0.00 71 1025.5
20190324132031 7 255 1.6 6.4 0.00 0.00 0.00 71 1025.5
20190324131022 6 256 0.0 0.0 0.00 0.00 0.00 68 1025.4
20190324130036 5 257 0.0 0.0 0.00 0.00 0.00 53 1025.3
20190324125031 4 313 0.0 0.0 0.00 0.00 0.00 44 1025.4
20190324124022 3 309 0.0 0.0 0.00 0.00 0.00 44 1025.4
20190324123035 2 309 0.0 0.0 0.00 0.00 0.00 46 1025.5
20190324122030 1 309 0.0 0.0 0.00 0.00 0.00 45 1025.6
20190324121022 0 309 0.0 0.0 0.00 0.00 0.00 46 1025.4
20190324120033 0 309 0.0 0.0 0.00 0.00 0.00 47 1025.6